CDT,Max TemperatureF,Mean TemperatureF,Min TemperatureF,Max Dew PointF,MeanDew PointF,Min DewpointF,Max Humidity, Mean Humidity, Min Humidity, Max Sea Level PressureIn, Mean Sea Level PressureIn, Min Sea Level PressureIn, Max VisibilityMiles, Mean VisibilityMiles, Min VisibilityMiles, Max Wind SpeedMPH, Mean Wind SpeedMPH, Max Gust SpeedMPH,PrecipitationIn, CloudCover, Events, WindDirDegrees
2012-10-1,80,76,71,73,72,70,100,93,76,29.66,29.60,29.57,10,7,1,14,7,25,0.94,8,Rain,165
2012-10-2,68,66,64,62,61,60,90,83,76,29.87,29.86,29.86,10,10,10,7,6,,0.00,8,,240
2012-10-3,75,67,59,61,57,55,93,71,50,30.17,30.14,30.10,10,10,9,4,2,,0.00,0,,54
2012-10-4,82,68,55,64,59,54,100,82,42,30.27,30.21,30.16,10,9,0,10,1,,0.00,2,Fog,49
2012-10-5,86,72,57,70,62,55,93,76,47,30.16,30.08,30.00,10,10,8,8,2,,0.00,1,,29
2012-10-6,84,73,62,70,64,57,100,83,43,30.04,30.00,29.92,10,6,0,13,2,,0.01,4,Fog,337
2012-10-7,71,63,55,57,55,50,94,77,57,30.11,30.05,30.01,10,10,7,13,7,17,0.00,5,,333
2012-10-8,71,61,51,51,49,47,86,70,47,30.13,30.08,30.04,10,10,10,13,6,,0.00,0,,347
2012-10-9,73,62,50,56,52,46,94,78,45,30.14,30.09,30.04,10,9,2,6,3,,0.00,4,,332
2012-10-10,78,63,48,62,53,46,96,81,46,30.17,30.13,30.09,10,8,0,10,1,,0.00,3,Fog,329
2012-10-11,82,70,57,62,58,55,93,73,44,30.25,30.20,30.15,10,9,4,6,3,,0.00,0,,5
2012-10-12,84,70,57,67,60,54,93,74,43,30.27,30.22,30.19,10,10,7,7,1,,0.00,0,,14
2012-10-13,84,72,61,64,62,59,93,73,46,30.27,30.20,30.14,10,10,10,8,3,,0.00,0,,107
2012-10-14,82,73,64,68,65,61,96,82,54,30.20,30.10,29.99,10,9,5,7,3,,0.00,2,,147
2012-10-15,80,70,57,70,62,50,100,77,40,29.99,29.96,29.90,10,9,5,14,6,18,0.07,4,Rain-Thunderstorm,291
2012-10-16,73,62,50,58,50,42,93,69,33,29.99,29.94,29.88,10,10,10,12,3,,0.00,0,,17
2012-10-17,79,66,53,59,53,48,93,68,39,29.92,29.85,29.79,10,10,7,9,3,17,0.00,0,,167
2012-10-18,81,68,55,65,59,47,97,79,46,29.88,29.80,29.74,10,10,5,14,5,22,0.18,4,Rain-Thunderstorm,239
2012-10-19,75,60,45,48,41,28,90,61,17,29.90,29.86,29.80,10,10,10,15,3,23,0.00,0,,253
2012-10-20,75,60,45,52,45,40,90,63,33,30.00,29.95,29.88,10,10,10,8,3,,0.00,0,,297
2012-10-21,80,62,45,55,47,41,90,67,28,30.14,30.09,30.01,10,10,10,8,1,,0.00,0,,49
2012-10-22,69,56,48,53,48,45,90,80,57,30.18,30.14,30.11,10,10,10,6,1,,0.00,0,,120
2012-10-23,80,68,55,55,49,42,87,56,28,30.15,30.09,30.05,10,10,10,8,3,,0.00,0,,110
2012-10-24,81,67,53,61,56,49,90,72,42,30.14,30.07,30.02,10,10,10,7,2,,0.00,0,Hail,93
2012-10-25,84,70,55,65,59,53,93,74,42,30.04,29.99,29.95,10,10,10,8,2,,0.00,1,,86
2012-10-26,82,72,61,64,60,57,90,71,41,30.00,29.93,29.88,10,10,10,12,4,,0.00,2,,359
2012-10-27,66,58,50,63,50,46,89,84,77,29.95,29.91,29.88,10,10,6,14,10,21,0.00,8,,320
2012-10-28,63,56,48,46,42,35,87,68,43,30.00,29.91,29.87,10,10,10,20,10,31,0.00,5,,322
2012-10-29,57,49,41,34,31,27,73,52,34,30.06,29.99,29.93,10,10,10,20,11,28,0.00,0,,316
2012-10-30,62,50,39,35,29,22,65,49,23,29.98,29.93,29.88,10,10,10,17,9,29,0.00,0,,284
2012-10-31,72,56,39,49,42,35,83,61,35,30.00,29.96,29.92,10,10,10,13,5,20,0.00,1,,258